Location: New Greens
(51.7702°N, 0.3379°W)
Time: 15:30:39
(UTC+00:00)

Envisat - Pass Details

Date: 27 January 2019
Orbit: 764 x 766 km, 98.2° (Epoch: 19 February)

Event Time Altitude Azimuth Distance (km) Brightness Sun altitude
Rises 18:42:46 0° 170° (S) 3,222 6.2 -18.7°
Reaches altitude 10° 18:45:05 10° 172° (S) 2,300 5.4 -19.1°
Maximum altitude 18:50:08 71° 257° (WSW) 812 3.2 -19.9°
Drops below altitude 10° 18:55:15 10° 342° (NNW) 2,316 5.6 -20.6°
Sets 18:57:35 0° 345° (NNW) 3,247 6.4 -21.0°
